This is the latest recevied weather packets stored in our database for station/object K7FRY. If no packets are shown the sender has not sent any weather packets the latest 1 day(s).
| Time | Temp. | Humidity | Pressure | Rain* | Wind** | Luminosity | Snow |
|---|---|---|---|---|---|---|---|
| 1777991079 | 14.44° C | 99% | 1013.8 hPa | 0 mm | 0 m/s | 111 W/m² | - |
| 1777990777 | 13.89° C | 99% | 1014 hPa | 0 mm | 0 m/s | 95 W/m² | - |
| 1777990474 | 13.89° C | 99% | 1013.8 hPa | 0 mm | 1.34 m/s, 170° | 54 W/m² | - |
| 1777990171 | 13.89° C | 99% | 1014.1 hPa | 0 mm | 0.45 m/s, 197° | 59 W/m² | - |
| 1777989867 | 14.44° C | 99% | 1013.9 hPa | 0 mm | 0 m/s | 83 W/m² | - |
| 1777989570 | 14.44° C | 99% | 1014 hPa | 0 mm | 0 m/s | 91 W/m² | - |
| 1777989261 | 13.89° C | 99% | 1013.9 hPa | 0 mm | 0.89 m/s, 157° | 71 W/m² | - |
| 1777988957 | 13.89° C | 99% | 1013.9 hPa | 0 mm | 0 m/s | 55 W/m² | - |
| 1777988654 | 13.89° C | 99% | 1013.9 hPa | 0 mm | 0 m/s | 43 W/m² | - |
| 1777988350 | 13.89° C | 99% | 1013.9 hPa | 0 mm | 0 m/s | 42 W/m² | - |
| 1777988048 | 13.89° C | 99% | 1013.8 hPa | 0 mm | 0.45 m/s, 138° | 36 W/m² | - |
| 1777987743 | 13.89° C | 99% | 1013.5 hPa | 0 mm | 0 m/s | 22 W/m² | - |
| 1777987440 | 13.33° C | 99% | 1013.6 hPa | 0 mm | 0 m/s | 12 W/m² | - |
| 1777987137 | 13.89° C | 99% | 1013.6 hPa | 0 mm | 0 m/s | 12 W/m² | - |
| 1777986834 | 13.89° C | 99% | 1013.2 hPa | 0 mm | 0 m/s | 11 W/m² | - |
| 1777986532 | 13.33° C | 99% | 1013.6 hPa | 0 mm | 0 m/s | 7 W/m² | - |
| 1777986230 | 13.89° C | 99% | 1013.4 hPa | 0 mm | 0.45 m/s, 123° | 7 W/m² | - |
| 1777985927 | 13.89° C | 99% | 1013.2 hPa | 0 mm | 0 m/s | 3 W/m² | - |
| 1777985625 | 13.89° C | 99% | 1013.5 hPa | 0 mm | 0 m/s | 1 W/m² | - |
| 1777985321 | 13.89° C | 99% | 1013.3 hPa | 0 mm | 0 m/s | 0 W/m² | - |
| 1777985018 | 13.33° C | 99% | 1013.3 hPa | 0 mm | 0 m/s | 0 W/m² | - |
| 1777984714 | 13.33° C | 99% | 1012.9 hPa | 0 mm | 0 m/s | 0 W/m² | - |
| 1777984410 | 13.33° C | 99% | 1013.3 hPa | 0 mm | 0 m/s | 0 W/m² | - |
| 1777984106 | 13.33° C | 99% | 1013.1 hPa | 0 mm | 0 m/s | 0 W/m² | - |
| 1777983804 | 13.33° C | 99% | 1012.8 hPa | 0 mm | 0 m/s | 0 W/m² | - |
* Rain latest hour (hover to see other rain measurements)
** Current wind speed in m/s (hover to see current wind gust speed)